START_TIME,STEP,MOV.,M6,t_acc.,M7,t_acc.,M19,t_acc.,H36,t_acc.
1979-07-28 06:00:26.300 ,0,1,0.,12.0,0.,12.0,0.,12.0,0.,12.0
1979-07-28 06:00:38.300 ,0,1,0.,12.0,0.,12.0,0.,12.0,0.,12.0
1979-07-28 06:00:50.300 ,3,1,0.,12.0,0.,12.0,0.,12.0,0.,12.0
1979-07-28 06:01:02.300 ,3,1,0.,12.0,0.,12.0,0.,12.0,0.,12.0
1979-07-28 06:01:14.300 ,7,1,0.,12.0,0.,12.0,0.,12.0,0.,12.0
1979-07-28 06:01:26.300 ,7,1,0.,12.0,0.,12.0,0.,12.0,0.,12.0
1979-07-28 06:01:38.300 ,4,1,0.,12.0,0.,12.0,0.,12.0,0.,12.0
1979-07-28 06:01:50.300 ,4,1,0.,12.0,0.,12.0,0.,12.0,0.,12.0
1979-07-28 06:02:02.300 ,0,1,0.,12.0,0.,12.0,0.,12.0,0.,12.0
1979-07-28 06:02:14.300 ,0,1,0.,12.0,0.,12.0,0.,12.0,0.,12.0
1979-07-28 06:02:26.300 ,3,1,0.,12.0,0.,12.0,0.,12.0,0.,12.0
1979-07-28 06:02:38.300 ,3,1,0.,12.0,0.,12.0,0.,12.0,0.,12.0
1979-07-28 06:02:50.300 ,7,1,0.,12.0,0.,12.0,0.,12.0,0.,12.0
1979-07-28 06:03:02.300 ,7,1,0.,12.0,0.,12.0,0.,12.0,0.,12.0
1979-07-28 06:03:14.300 ,4,1,0.,12.0,0.,12.0,0.,12.0,0.,12.0
1979-07-28 06:03:26.300 ,4,1,0.,12.0,0.,12.0,0.,12.0,0.,12.0
1979-07-28 06:03:38.300 ,0,1,0.,12.0,0.,12.0,0.,12.0,0.,12.0
1979-07-28 06:03:50.300 ,0,1,0.,12.0,0.,12.0,0.,12.0,0.,12.0
1979-07-28 06:04:02.300 ,3,1,0.,12.0,0.,12.0,0.,12.0,0.,12.0
1979-07-28 06:04:14.300 ,3,1,0.,12.0,0.,12.0,0.,12.0,0.,12.0
1979-07-28 06:04:26.300 ,7,1,0.,12.0,0.,12.0,0.,12.0,0.,12.0
1979-07-28 06:04:38.300 ,7,1,0.,12.0,0.,12.0,0.,12.0,0.,12.0
1979-07-28 06:04:50.300 ,4,1,0.,12.0,0.,12.0,0.,12.0,0.,12.0
1979-07-28 06:05:02.300 ,4,1,0.,12.0,0.,12.0,0.,12.0,0.,12.0
1979-07-28 06:05:14.300 ,0,1,0.,12.0,0.,12.0,0.,12.0,0.,12.0
1979-07-28 06:05:26.300 ,0,1,0.,12.0,0.,12.0,0.,12.0,0.,12.0
1979-07-28 06:05:38.300 ,0,0,0.,12.0,0.,12.0,0.,12.0,0.,12.0
1979-07-28 06:05:50.300 ,0,0,0.,12.0,0.,12.0,0.,12.0,0.,12.0
1979-07-28 06:06:02.300 ,0,0,0.,12.0,0.,12.0,0.,12.0,0.,12.0
1979-07-28 06:06:14.300 ,0,0,0.,12.0,0.,12.0,0.,12.0,0.,12.0
1979-07-28 06:06:26.300 ,5,1,0.,12.0,0.,12.0,0.,12.0,0.,12.0
1979-07-28 06:06:38.300 ,5,1,0.,12.0,0.,12.0,0.,12.0,0.,12.0
1979-07-28 06:06:50.300 ,5,0,0.,12.0,0.,12.0,0.,12.0,0.,12.0
1979-07-28 06:07:02.300 ,5,0,0.,12.0,0.,12.0,0.,12.0,0.,12.0
1979-07-28 06:07:14.300 ,4,1,0.,12.0,0.,12.0,0.,12.0,0.,12.0
1979-07-28 06:07:26.300 ,4,1,0.,12.0,0.,12.0,0.,12.0,0.,12.0
1979-07-28 06:07:38.300 ,4,0,0.,12.0,0.,12.0,0.,12.0,0.,12.0
1979-07-28 06:07:50.300 ,4,0,0.,12.0,0.,12.0,0.,12.0,0.,12.0
1979-07-28 06:08:02.300 ,3,1,0.,12.0,0.,12.0,0.,12.0,0.,12.0
1979-07-28 06:08:14.300 ,3,1,0.,12.0,0.,12.0,0.,12.0,0.,12.0
1979-07-28 06:08:26.300 ,3,0,0.,12.0,0.,12.0,0.,12.0,0.,12.0
1979-07-28 06:08:38.300 ,3,0,0.,12.0,0.,12.0,0.,12.0,0.,12.0
1979-07-28 06:08:50.300 ,2,1,0.,12.0,0.,12.0,0.,12.0,0.,12.0
1979-07-28 06:09:02.300 ,2,1,0.,12.0,0.,12.0,0.,12.0,0.,12.0
1979-07-28 06:09:14.300 ,2,0,0.,12.0,0.,12.0,0.,12.0,0.,12.0
1979-07-28 06:09:26.300 ,2,0,0.,12.0,0.,12.0,0.,12.0,0.,12.0
1979-07-28 06:09:38.300 ,1,1,0.,12.0,0.,12.0,0.,12.0,0.,12.0
1979-07-28 06:09:50.300 ,1,1,0.,12.0,0.,12.0,0.,12.0,0.,12.0
1979-07-28 06:10:02.300 ,1,0,0.,12.0,0.,12.0,0.,12.0,0.,12.0
1979-07-28 06:10:14.300 ,1,0,0.,12.0,0.,12.0,0.,12.0,0.,12.0
1979-07-28 06:10:26.300 ,0,1,0.,12.0,0.,12.0,0.,12.0,0.,12.0
1979-07-28 06:10:38.300 ,0,1,0.,12.0,0.,12.0,0.,12.0,0.,12.0
1979-07-28 06:10:50.300 ,0,0,0.,12.0,0.,12.0,0.,12.0,0.,12.0
1979-07-28 06:11:02.300 ,0,0,0.,12.0,0.,12.0,0.,12.0,0.,12.0
1979-07-28 06:11:14.300 ,0,1,0.,12.0,0.,12.0,0.,12.0,0.,12.0
1979-07-28 06:11:26.300 ,0,1,0.,12.0,0.,12.0,0.,12.0,0.,12.0
1979-07-28 06:11:38.300 ,0,0,0.,12.0,0.,12.0,0.,12.0,0.,12.0
1979-07-28 06:11:50.300 ,0,0,0.,12.0,0.,12.0,0.,12.0,0.,12.0
1979-07-28 06:12:02.300 ,1,1,0.,12.0,0.,12.0,0.,12.0,0.,12.0
1979-07-28 06:12:14.300 ,1,1,0.,12.0,0.,12.0,0.,12.0,0.,12.0
1979-07-28 06:12:26.300 ,1,0,0.,12.0,0.,12.0,0.,12.0,0.,12.0
1979-07-28 06:12:38.300 ,1,0,0.,12.0,0.,12.0,0.,12.0,0.,12.0
1979-07-28 06:12:50.300 ,2,1,0.,12.0,0.,12.0,0.,12.0,0.,12.0
1979-07-28 06:13:02.300 ,2,1,0.,12.0,0.,12.0,0.,12.0,0.,12.0
1979-07-28 06:13:14.300 ,2,0,0.,12.0,0.,12.0,0.,12.0,0.,12.0
1979-07-28 06:13:26.300 ,2,0,0.,12.0,0.,12.0,0.,12.0,0.,12.0
1979-07-28 06:13:38.300 ,3,1,0.,12.0,0.,12.0,0.,12.0,0.,12.0
1979-07-28 06:13:50.300 ,3,1,0.,12.0,0.,12.0,0.,12.0,0.,12.0
1979-07-28 06:14:02.300 ,3,0,0.,12.0,0.,12.0,0.,12.0,0.,12.0
1979-07-28 06:14:14.300 ,3,0,0.,12.0,0.,12.0,0.,12.0,0.,12.0
1979-07-28 06:14:26.300 ,4,1,0.,12.0,0.,12.0,0.,12.0,0.,12.0
1979-07-28 06:14:38.300 ,4,1,0.,12.0,0.,12.0,0.,12.0,0.,12.0
1979-07-28 06:14:50.300 ,4,0,0.,12.0,0.,12.0,0.,12.0,0.,12.0
1979-07-28 06:15:02.300 ,4,0,0.,12.0,0.,12.0,0.,12.0,0.,12.0
1979-07-28 06:15:14.300 ,5,1,0.,12.0,0.,12.0,0.,12.0,0.,12.0
1979-07-28 06:15:26.300 ,5,1,0.,12.0,0.,12.0,0.,12.0,0.,12.0
1979-07-28 06:15:38.300 ,5,0,0.,12.0,0.,12.0,0.,12.0,0.,12.0
1979-07-28 06:15:50.300 ,5,0,0.,12.0,0.,12.0,0.,12.0,0.,12.0
1979-07-28 06:16:02.300 ,6,1,0.,12.0,0.,12.0,0.,12.0,0.,12.0
1979-07-28 06:16:14.300 ,6,1,0.,12.0,0.,12.0,0.,12.0,0.,12.0
1979-07-28 06:16:26.300 ,6,0,0.,12.0,0.,12.0,0.,12.0,0.,12.0
1979-07-28 06:16:38.300 ,6,0,0.,12.0,0.,12.0,0.,12.0,0.,12.0
1979-07-28 06:16:50.300 ,7,1,0.,12.0,0.,12.0,0.,12.0,0.,12.0
1979-07-28 06:17:02.300 ,7,1,0.,12.0,0.,12.0,0.,12.0,0.,12.0
1979-07-28 06:17:14.300 ,7,0,0.,12.0,0.,12.0,0.,12.0,0.,12.0
1979-07-28 06:17:26.300 ,7,0,0.,12.0,0.,12.0,0.,12.0,0.,12.0
1979-07-28 06:17:38.300 ,7,1,0.,12.0,0.,12.0,0.,12.0,0.,12.0
1979-07-28 06:17:50.300 ,7,1,0.,12.0,0.,12.0,0.,12.0,0.,12.0
1979-07-28 06:18:02.300 ,7,0,0.,12.0,0.,12.0,0.,12.0,0.,12.0
1979-07-28 06:18:14.300 ,7,0,0.,12.0,0.,12.0,0.,12.0,0.,12.0
1979-07-28 06:18:26.300 ,6,1,0.,12.0,0.,12.0,0.,12.0,0.,12.0
1979-07-28 06:18:38.300 ,6,1,0.,12.0,0.,12.0,0.,12.0,0.,12.0
1979-07-28 06:18:50.300 ,6,0,0.,12.0,0.,12.0,0.,12.0,0.,12.0
1979-07-28 06:19:02.300 ,6,0,0.,12.0,0.,12.0,0.,12.0,0.,12.0
1979-07-28 06:19:14.300 ,5,1,0.,12.0,0.,12.0,0.,12.0,0.,12.0
1979-07-28 06:19:26.300 ,5,1,0.,12.0,0.,12.0,0.,12.0,0.,12.0
1979-07-28 06:19:38.300 ,5,0,0.,12.0,0.,12.0,0.,12.0,0.,12.0
1979-07-28 06:19:50.300 ,5,0,0.,12.0,0.,12.0,0.,12.0,0.,12.0
1979-07-28 06:20:02.300 ,4,1,0.,12.0,0.,12.0,0.,12.0,0.,12.0
1979-07-28 06:20:14.300 ,4,1,0.,12.0,0.,12.0,0.,12.0,0.,12.0
1979-07-28 06:20:26.300 ,4,0,0.,12.0,0.,12.0,0.,12.0,0.,12.0
1979-07-28 06:20:38.300 ,4,0,0.,12.0,0.,12.0,0.,12.0,0.,12.0
1979-07-28 06:20:50.300 ,3,1,0.,12.0,0.,12.0,0.,12.0,0.,12.0
1979-07-28 06:21:02.300 ,3,1,0.,12.0,0.,12.0,0.,12.0,0.,12.0
1979-07-28 06:21:14.300 ,3,0,0.,12.0,0.,12.0,0.,12.0,0.,12.0
1979-07-28 06:21:26.300 ,3,0,0.,12.0,0.,12.0,0.,12.0,0.,12.0
1979-07-28 06:21:38.300 ,2,1,0.,12.0,0.,12.0,0.,12.0,0.,12.0
1979-07-28 06:21:50.300 ,2,1,0.,12.0,0.,12.0,0.,12.0,0.,12.0
1979-07-28 06:22:02.300 ,2,0,0.,12.0,0.,12.0,0.,12.0,0.,12.0
1979-07-28 06:22:14.300 ,2,0,0.,12.0,0.,12.0,0.,12.0,0.,12.0
1979-07-28 06:22:26.300 ,1,1,0.,12.0,0.,12.0,0.,12.0,0.,12.0
1979-07-28 06:22:38.300 ,1,1,0.,12.0,0.,12.0,0.,12.0,0.,12.0
1979-07-28 06:22:50.300 ,1,0,1.,12.0,0.,12.0,0.,12.0,0.,12.0
1979-07-28 06:23:02.300 ,1,0,0.,12.0,0.,12.0,0.,12.0,0.,12.0
1979-07-28 06:23:14.300 ,0,1,0.,12.0,0.,12.0,0.,12.0,0.,12.0
1979-07-28 06:23:26.300 ,0,1,0.,12.0,0.,12.0,0.,12.0,0.,12.0
1979-07-28 06:23:38.300 ,0,0,0.,12.0,0.,12.0,0.,12.0,0.,12.0
1979-07-28 06:23:50.300 ,0,0,0.,12.0,0.,12.0,0.,12.0,0.,12.0
1979-07-28 06:24:02.300 ,0,1,0.,12.0,0.,12.0,0.,12.0,0.,12.0
1979-07-28 06:24:14.300 ,0,1,0.,12.0,0.,12.0,0.,12.0,0.,12.0
1979-07-28 06:24:26.300 ,0,0,0.,12.0,0.,12.0,0.,12.0,0.,12.0
1979-07-28 06:24:38.300 ,0,0,0.,12.0,0.,12.0,0.,12.0,0.,12.0
1979-07-28 06:24:50.300 ,1,1,0.,12.0,0.,12.0,0.,12.0,0.,12.0
1979-07-28 06:25:02.300 ,1,1,0.,12.0,0.,12.0,0.,12.0,0.,12.0
1979-07-28 06:25:14.300 ,1,0,0.,12.0,0.,12.0,0.,12.0,0.,12.0
1979-07-28 06:25:26.300 ,1,0,0.,12.0,0.,12.0,0.,12.0,0.,12.0
1979-07-28 06:25:38.300 ,2,1,0.,12.0,0.,12.0,0.,12.0,0.,12.0
1979-07-28 06:25:50.300 ,2,1,0.,12.0,0.,12.0,0.,12.0,0.,12.0
1979-07-28 06:26:02.300 ,2,0,0.,12.0,0.,12.0,0.,12.0,0.,12.0
1979-07-28 06:26:14.300 ,2,0,0.,12.0,0.,12.0,0.,12.0,0.,12.0
1979-07-28 06:26:26.300 ,3,1,0.,12.0,0.,12.0,0.,12.0,0.,12.0
1979-07-28 06:26:38.300 ,3,1,0.,12.0,0.,12.0,0.,12.0,0.,12.0
1979-07-28 06:26:50.300 ,3,0,0.,12.0,0.,12.0,0.,12.0,0.,12.0
1979-07-28 06:27:02.300 ,3,0,0.,12.0,0.,12.0,0.,12.0,0.,12.0
1979-07-28 06:27:14.300 ,4,1,0.,12.0,0.,12.0,0.,12.0,0.,12.0
1979-07-28 06:27:26.300 ,4,1,0.,12.0,0.,12.0,0.,12.0,0.,12.0
1979-07-28 06:27:38.300 ,4,0,0.,12.0,0.,12.0,0.,12.0,0.,12.0
1979-07-28 06:27:50.300 ,4,0,0.,12.0,0.,12.0,0.,12.0,0.,12.0
1979-07-28 06:28:02.300 ,5,1,0.,12.0,0.,12.0,0.,12.0,0.,12.0
1979-07-28 06:28:14.300 ,5,1,0.,12.0,0.,12.0,0.,12.0,0.,12.0
1979-07-28 06:28:26.300 ,5,0,0.,12.0,0.,12.0,0.,12.0,0.,12.0
1979-07-28 06:28:38.300 ,5,0,0.,12.0,0.,12.0,0.,12.0,0.,12.0
1979-07-28 06:28:50.300 ,6,1,0.,12.0,0.,12.0,0.,12.0,0.,12.0
1979-07-28 06:29:02.300 ,6,1,0.,12.0,0.,12.0,0.,12.0,0.,12.0
1979-07-28 06:29:14.300 ,6,0,0.,12.0,0.,12.0,0.,12.0,0.,12.0
1979-07-28 06:29:26.300 ,6,0,0.,12.0,0.,12.0,0.,12.0,0.,12.0
1979-07-28 06:29:38.300 ,7,1,0.,12.0,0.,12.0,0.,12.0,0.,12.0
1979-07-28 06:29:50.300 ,7,1,0.,12.0,0.,12.0,0.,12.0,0.,12.0
1979-07-28 06:30:02.300 ,7,0,0.,12.0,0.,12.0,0.,12.0,0.,12.0
1979-07-28 06:30:14.300 ,7,0,0.,12.0,0.,12.0,0.,12.0,0.,12.0
1979-07-28 06:30:26.300 ,7,1,0.,12.0,0.,12.0,0.,12.0,0.,12.0
1979-07-28 06:30:38.300 ,7,1,0.,12.0,0.,12.0,0.,12.0,0.,12.0
1979-07-28 06:30:50.300 ,7,0,0.,12.0,0.,12.0,0.,12.0,0.,12.0
1979-07-28 06:31:02.300 ,7,0,0.,12.0,0.,12.0,0.,12.0,0.,12.0
1979-07-28 06:31:14.300 ,6,1,0.,12.0,0.,12.0,0.,12.0,0.,12.0
1979-07-28 06:31:26.300 ,6,1,0.,12.0,0.,12.0,0.,12.0,0.,12.0
1979-07-28 06:31:38.300 ,6,0,0.,12.0,0.,12.0,0.,12.0,0.,12.0
1979-07-28 06:31:50.300 ,6,0,0.,12.0,0.,12.0,0.,12.0,0.,12.0
1979-07-28 06:32:02.300 ,5,1,0.,12.0,0.,12.0,0.,12.0,0.,12.0
1979-07-28 06:32:14.300 ,5,1,0.,12.0,1.,12.0,0.,12.0,0.,12.0
1979-07-28 06:32:26.300 ,5,0,0.,12.0,0.,12.0,0.,12.0,0.,12.0
1979-07-28 06:32:38.300 ,5,0,0.,12.0,0.,12.0,0.,12.0,0.,12.0
1979-07-28 06:32:50.300 ,4,1,0.,12.0,0.,12.0,0.,12.0,0.,12.0
1979-07-28 06:33:02.300 ,4,1,0.,12.0,0.,12.0,0.,12.0,0.,12.0
1979-07-28 06:33:14.300 ,4,0,0.,12.0,0.,12.0,0.,12.0,0.,12.0
1979-07-28 06:33:26.300 ,4,0,0.,12.0,0.,12.0,0.,12.0,0.,12.0
1979-07-28 06:33:38.300 ,3,1,0.,12.0,0.,12.0,0.,12.0,0.,12.0
1979-07-28 06:33:50.300 ,3,1,0.,12.0,0.,12.0,0.,12.0,0.,12.0
1979-07-28 06:34:02.300 ,3,0,0.,12.0,0.,12.0,0.,12.0,0.,12.0
1979-07-28 06:34:14.300 ,3,0,0.,12.0,0.,12.0,0.,12.0,0.,12.0
1979-07-28 06:34:26.300 ,2,1,0.,12.0,0.,12.0,0.,12.0,0.,12.0
1979-07-28 06:34:38.300 ,2,1,0.,12.0,0.,12.0,0.,12.0,0.,12.0
1979-07-28 06:34:50.300 ,2,0,0.,12.0,0.,12.0,0.,12.0,0.,12.0
1979-07-28 06:35:02.300 ,2,0,0.,12.0,0.,12.0,0.,12.0,0.,12.0
1979-07-28 06:35:14.300 ,1,1,0.,12.0,0.,12.0,0.,12.0,0.,12.0
1979-07-28 06:35:26.300 ,1,1,0.,12.0,0.,12.0,0.,12.0,0.,12.0
1979-07-28 06:35:38.300 ,1,0,0.,12.0,0.,12.0,0.,12.0,0.,12.0
1979-07-28 06:35:50.300 ,1,0,0.,12.0,0.,12.0,0.,12.0,0.,12.0
1979-07-28 06:36:02.300 ,0,1,0.,12.0,0.,12.0,0.,12.0,0.,12.0
1979-07-28 06:36:14.300 ,0,1,0.,12.0,0.,12.0,0.,12.0,0.,12.0
1979-07-28 06:36:26.300 ,0,0,0.,12.0,0.,12.0,0.,12.0,0.,12.0
1979-07-28 06:36:38.300 ,0,0,0.,12.0,0.,12.0,0.,12.0,0.,12.0
1979-07-28 06:36:50.300 ,0,0,,0,,0,,0,,0
1979-07-28 06:37:02.300 ,0,0,,0,,0,,0,,0
1979-07-28 06:37:14.300 ,0,0,,0,,0,,0,,0
1979-07-28 06:37:26.300 ,0,0,,0,,0,,0,,0
1979-07-28 06:37:14.300 ,0,0,0.,12.0,0.,12.0,0.,12.0,0.,12.0
1979-07-28 06:37:26.300 ,0,0,0.,12.0,0.,12.0,0.,12.0,0.,12.0
1979-07-28 06:37:38.300 ,1,1,0.,12.0,0.,12.0,0.,12.0,0.,12.0
1979-07-28 06:37:50.300 ,1,1,0.,12.0,0.,12.0,0.,12.0,0.,12.0
1979-07-28 06:38:02.300 ,1,0,0.,12.0,0.,12.0,0.,12.0,0.,12.0
1979-07-28 06:38:14.300 ,1,0,0.,12.0,0.,12.0,0.,12.0,0.,12.0
1979-07-28 06:38:26.300 ,2,1,0.,12.0,0.,12.0,0.,12.0,0.,12.0
1979-07-28 06:38:38.300 ,2,1,0.,12.0,0.,12.0,0.,12.0,0.,12.0
1979-07-28 06:38:50.300 ,2,0,0.,12.0,0.,12.0,0.,12.0,0.,12.0
1979-07-28 06:39:02.300 ,2,0,0.,12.0,0.,12.0,0.,12.0,0.,12.0
1979-07-28 06:39:14.300 ,3,1,0.,12.0,0.,12.0,0.,12.0,0.,12.0
1979-07-28 06:39:26.300 ,3,1,0.,12.0,0.,12.0,0.,12.0,0.,12.0
1979-07-28 06:39:38.300 ,3,0,0.,12.0,0.,12.0,0.,12.0,0.,12.0
1979-07-28 06:39:50.300 ,3,0,0.,12.0,0.,12.0,0.,12.0,0.,12.0
1979-07-28 06:40:02.300 ,4,1,0.,12.0,0.,12.0,0.,12.0,0.,12.0
1979-07-28 06:40:14.300 ,4,1,0.,12.0,0.,12.0,0.,12.0,0.,12.0
1979-07-28 06:40:26.300 ,4,0,0.,12.0,0.,12.0,0.,12.0,0.,12.0
1979-07-28 06:40:38.300 ,4,0,0.,12.0,0.,12.0,0.,12.0,0.,12.0
1979-07-28 06:40:50.300 ,4,0,0.,12.0,0.,12.0,0.,12.0,0.,12.0
1979-07-28 06:41:02.300 ,4,0,,0,,0,,0,,0
1979-07-28 06:41:14.300 ,5,0,0.,12.0,0.,12.0,0.,12.0,0.,12.0
1979-07-28 06:41:26.300 ,5,0,0.,12.0,0.,12.0,0.,12.0,0.,12.0
1979-07-28 06:41:38.300 ,6,1,0.,12.0,0.,12.0,0.,12.0,0.,12.0
1979-07-28 06:41:50.300 ,6,1,0.,12.0,0.,12.0,0.,12.0,0.,12.0
1979-07-28 06:42:02.300 ,6,0,0.,12.0,0.,12.0,0.,12.0,0.,12.0
1979-07-28 06:42:14.300 ,6,0,0.,12.0,0.,12.0,0.,12.0,0.,12.0
1979-07-28 06:42:26.300 ,7,0,0.,12.0,0.,12.0,0.,12.0,0.,12.0
1979-07-28 06:42:38.300 ,7,0,0.,12.0,0.,12.0,0.,12.0,0.,12.0
1979-07-28 06:42:50.300 ,7,0,0.,12.0,0.,12.0,0.,12.0,0.,12.0
1979-07-28 06:43:02.300 ,7,0,0.,12.0,0.,12.0,0.,12.0,0.,12.0
1979-07-28 06:43:14.300 ,4,1,0.,12.0,0.,12.0,0.,12.0,0.,12.0
1979-07-28 06:43:26.300 ,4,1,0.,12.0,0.,12.0,0.,12.0,0.,12.0
1979-07-28 06:43:38.300 ,0,1,0.,12.0,0.,12.0,0.,12.0,0.,12.0
1979-07-28 06:43:50.300 ,0,1,0.,12.0,0.,12.0,0.,12.0,0.,12.0
1979-07-28 06:44:02.300 ,3,1,0.,12.0,0.,12.0,0.,12.0,0.,12.0
1979-07-28 06:44:14.300 ,3,1,0.,12.0,0.,12.0,0.,12.0,0.,12.0
1979-07-28 06:44:26.300 ,7,1,0.,12.0,0.,12.0,0.,12.0,0.,12.0
1979-07-28 06:44:38.300 ,7,1,0.,12.0,0.,12.0,0.,12.0,0.,12.0
1979-07-28 06:44:50.300 ,4,1,0.,12.0,0.,12.0,0.,12.0,0.,12.0
1979-07-28 06:45:02.300 ,4,1,0.,12.0,0.,12.0,0.,12.0,0.,12.0
1979-07-28 06:45:14.300 ,0,1,0.,12.0,0.,12.0,0.,12.0,0.,12.0
1979-07-28 06:45:26.300 ,0,1,0.,12.0,0.,12.0,0.,12.0,0.,12.0
1979-07-28 06:45:38.300 ,3,1,0.,12.0,0.,12.0,0.,12.0,0.,12.0
1979-07-28 06:45:50.300 ,3,1,0.,12.0,0.,12.0,0.,12.0,0.,12.0
1979-07-28 06:46:02.300 ,7,1,0.,12.0,0.,12.0,0.,12.0,0.,12.0
1979-07-28 06:46:14.300 ,7,1,0.,12.0,0.,12.0,0.,12.0,0.,12.0
1979-07-28 06:46:26.300 ,4,1,0.,12.0,0.,12.0,0.,12.0,0.,12.0
1979-07-28 06:46:38.300 ,4,1,0.,12.0,0.,12.0,0.,12.0,0.,12.0
1979-07-28 06:46:50.300 ,0,1,0.,12.0,0.,12.0,0.,12.0,0.,12.0
1979-07-28 06:47:02.300 ,0,1,0.,12.0,0.,12.0,0.,12.0,0.,12.0
1979-07-28 06:47:14.300 ,3,1,0.,12.0,0.,12.0,0.,12.0,0.,12.0
1979-07-28 06:47:26.300 ,3,1,0.,12.0,0.,12.0,0.,12.0,0.,12.0
1979-07-28 06:47:38.300 ,7,1,0.,12.0,0.,12.0,0.,12.0,0.,12.0
1979-07-28 06:47:50.300 ,7,1,0.,12.0,0.,12.0,0.,12.0,0.,12.0
1979-07-28 06:48:02.300 ,4,1,0.,12.0,0.,12.0,0.,12.0,0.,12.0
1979-07-28 06:48:14.300 ,4,1,0.,12.0,0.,12.0,0.,12.0,0.,12.0
1979-07-28 06:48:26.300 ,0,1,0.,12.0,0.,12.0,0.,12.0,0.,12.0
1979-07-28 06:48:38.300 ,0,1,0.,12.0,0.,12.0,0.,12.0,0.,12.0
1979-07-28 06:48:50.300 ,3,1,0.,12.0,0.,12.0,0.,12.0,0.,12.0
1979-07-28 06:49:02.300 ,3,1,0.,12.0,0.,12.0,0.,12.0,0.,12.0
1979-07-28 06:49:14.300 ,7,1,0.,12.0,0.,12.0,0.,12.0,0.,12.0
1979-07-28 06:49:26.300 ,7,1,0.,12.0,0.,12.0,0.,12.0,0.,12.0
1979-07-28 06:49:38.300 ,4,1,0.,12.0,0.,12.0,0.,12.0,0.,12.0
1979-07-28 06:49:50.300 ,4,1,0.,12.0,0.,12.0,0.,12.0,0.,12.0
1979-07-28 06:50:02.300 ,0,1,0.,12.0,0.,12.0,0.,12.0,0.,12.0
1979-07-28 06:50:14.300 ,0,1,0.,12.0,0.,12.0,0.,12.0,0.,12.0
1979-07-28 06:50:26.300 ,3,1,0.,12.0,0.,12.0,0.,12.0,0.,12.0
1979-07-28 06:50:38.300 ,3,1,0.,12.0,0.,12.0,0.,12.0,0.,12.0
1979-07-28 06:50:50.300 ,7,1,0.,12.0,0.,12.0,0.,12.0,0.,12.0
1979-07-28 06:51:02.300 ,7,1,0.,12.0,0.,12.0,0.,12.0,0.,12.0
1979-07-28 06:51:14.300 ,4,1,0.,12.0,0.,12.0,0.,12.0,0.,12.0
1979-07-28 06:51:26.300 ,4,1,0.,12.0,0.,12.0,0.,12.0,0.,12.0
1979-07-28 06:51:38.300 ,0,1,0.,12.0,0.,12.0,0.,12.0,0.,12.0
1979-07-28 06:51:50.300 ,0,1,0.,12.0,0.,12.0,0.,12.0,0.,12.0
1979-07-28 06:52:02.300 ,3,1,0.,12.0,0.,12.0,0.,12.0,0.,12.0
1979-07-28 06:52:14.300 ,3,1,0.,12.0,0.,12.0,0.,12.0,0.,12.0
1979-07-28 06:52:26.300 ,7,1,0.,12.0,0.,12.0,0.,12.0,0.,12.0
1979-07-28 06:52:38.300 ,7,1,0.,12.0,0.,12.0,0.,12.0,0.,12.0
1979-07-28 06:52:50.300 ,4,1,0.,12.0,0.,12.0,0.,12.0,0.,12.0
1979-07-28 06:53:02.300 ,4,1,0.,12.0,0.,12.0,0.,12.0,0.,12.0
1979-07-28 06:53:14.300 ,0,1,0.,12.0,0.,12.0,0.,12.0,0.,12.0
1979-07-28 06:53:26.300 ,0,1,0.,12.0,0.,12.0,0.,12.0,0.,12.0
1979-07-28 06:53:38.300 ,0,0,0.,12.0,0.,12.0,0.,12.0,0.,12.0
1979-07-28 06:53:50.300 ,0,0,0.,12.0,0.,12.0,0.,12.0,0.,12.0
1979-07-28 06:54:02.300 ,0,0,0.,12.0,0.,12.0,0.,12.0,0.,12.0
1979-07-28 06:54:14.300 ,0,0,0.,12.0,0.,12.0,0.,12.0,0.,12.0
1979-07-28 06:54:26.300 ,5,1,0.,12.0,0.,12.0,0.,12.0,0.,12.0
1979-07-28 06:54:38.300 ,5,1,0.,12.0,0.,12.0,0.,12.0,0.,12.0
1979-07-28 06:54:50.300 ,5,0,0.,12.0,0.,12.0,0.,12.0,0.,12.0
1979-07-28 06:55:02.300 ,5,0,0.,12.0,0.,12.0,0.,12.0,0.,12.0
1979-07-28 06:55:14.300 ,4,1,0.,12.0,0.,12.0,0.,12.0,0.,12.0
1979-07-28 06:55:26.300 ,4,1,0.,12.0,0.,12.0,0.,12.0,0.,12.0
1979-07-28 06:55:38.300 ,4,0,0.,12.0,0.,12.0,0.,12.0,0.,12.0
1979-07-28 06:55:50.300 ,4,0,0.,12.0,0.,12.0,0.,12.0,0.,12.0
1979-07-28 06:56:02.300 ,3,1,0.,12.0,0.,12.0,0.,12.0,0.,12.0
1979-07-28 06:56:14.300 ,3,1,0.,12.0,0.,12.0,0.,12.0,0.,12.0
1979-07-28 06:56:26.300 ,3,0,0.,12.0,0.,12.0,0.,12.0,0.,12.0
1979-07-28 06:56:38.300 ,3,0,0.,12.0,0.,12.0,0.,12.0,0.,12.0
1979-07-28 06:56:50.300 ,2,1,0.,12.0,0.,12.0,0.,12.0,0.,12.0
1979-07-28 06:57:02.300 ,2,1,0.,12.0,0.,12.0,0.,12.0,0.,12.0
1979-07-28 06:57:14.300 ,2,0,0.,12.0,0.,12.0,0.,12.0,0.,12.0
1979-07-28 06:57:26.300 ,2,0,0.,12.0,0.,12.0,0.,12.0,0.,12.0
1979-07-28 06:57:38.300 ,1,1,0.,12.0,0.,12.0,0.,12.0,0.,12.0
1979-07-28 06:57:50.300 ,1,1,0.,12.0,0.,12.0,0.,12.0,0.,12.0
1979-07-28 06:58:02.300 ,1,0,0.,12.0,0.,12.0,0.,12.0,0.,12.0
1979-07-28 06:58:14.300 ,1,0,0.,12.0,0.,12.0,0.,12.0,0.,12.0
1979-07-28 06:58:26.300 ,0,1,0.,12.0,0.,12.0,0.,12.0,0.,12.0
1979-07-28 06:58:38.300 ,0,1,0.,12.0,0.,12.0,0.,12.0,0.,12.0
1979-07-28 06:58:50.300 ,0,0,0.,12.0,0.,12.0,0.,12.0,0.,12.0
1979-07-28 06:59:02.300 ,0,0,0.,12.0,0.,12.0,0.,12.0,0.,12.0
1979-07-28 06:59:14.300 ,0,1,0.,12.0,0.,12.0,0.,12.0,0.,12.0
1979-07-28 06:59:26.300 ,0,1,0.,12.0,0.,12.0,0.,12.0,0.,12.0
1979-07-28 06:59:38.300 ,0,0,0.,12.0,0.,12.0,0.,12.0,0.,12.0
1979-07-28 06:59:50.300 ,0,0,0.,12.0,0.,12.0,0.,12.0,0.,12.0
1979-07-28 07:00:02.300 ,1,1,0.,12.0,0.,12.0,0.,12.0,0.,12.0
1979-07-28 07:00:14.300 ,1,1,0.,12.0,0.,12.0,0.,12.0,0.,12.0
1979-07-28 07:00:26.300 ,1,0,0.,12.0,0.,12.0,0.,12.0,0.,12.0
1979-07-28 07:00:38.300 ,1,0,0.,12.0,0.,12.0,0.,12.0,0.,12.0
1979-07-28 07:00:50.300 ,2,1,0.,12.0,0.,12.0,0.,12.0,0.,12.0
1979-07-28 07:01:02.300 ,2,1,0.,12.0,0.,12.0,0.,12.0,0.,12.0
1979-07-28 07:01:14.300 ,2,0,0.,12.0,0.,12.0,0.,12.0,0.,12.0
1979-07-28 07:01:26.300 ,2,0,0.,12.0,0.,12.0,0.,12.0,0.,12.0
1979-07-28 07:01:38.300 ,3,1,0.,12.0,0.,12.0,0.,12.0,0.,12.0
1979-07-28 07:01:50.300 ,3,1,0.,12.0,0.,12.0,0.,12.0,0.,12.0
1979-07-28 07:02:02.300 ,3,0,0.,12.0,0.,12.0,0.,12.0,0.,12.0
1979-07-28 07:02:14.300 ,3,0,0.,12.0,0.,12.0,0.,12.0,0.,12.0
1979-07-28 07:02:26.300 ,4,1,0.,12.0,0.,12.0,0.,12.0,0.,12.0
1979-07-28 07:02:38.300 ,4,1,0.,12.0,0.,12.0,0.,12.0,0.,12.0
1979-07-28 07:02:50.300 ,4,0,0.,12.0,0.,12.0,0.,12.0,0.,12.0
1979-07-28 07:03:02.300 ,4,0,0.,12.0,0.,12.0,0.,12.0,0.,12.0
1979-07-28 07:03:14.300 ,5,1,0.,12.0,0.,12.0,0.,12.0,0.,12.0
1979-07-28 07:03:26.300 ,5,1,0.,12.0,0.,12.0,0.,12.0,0.,12.0
1979-07-28 07:03:38.300 ,5,0,0.,12.0,0.,12.0,0.,12.0,0.,12.0
1979-07-28 07:03:50.300 ,5,0,0.,12.0,0.,12.0,0.,12.0,0.,12.0
1979-07-28 07:04:02.300 ,6,1,0.,12.0,0.,12.0,0.,12.0,0.,12.0
1979-07-28 07:04:14.300 ,6,1,0.,12.0,0.,12.0,0.,12.0,0.,12.0
1979-07-28 07:04:26.300 ,6,0,0.,12.0,0.,12.0,0.,12.0,0.,12.0
1979-07-28 07:04:38.300 ,6,0,0.,12.0,0.,12.0,0.,12.0,0.,12.0
1979-07-28 07:04:50.300 ,7,1,0.,12.0,0.,12.0,0.,12.0,0.,12.0
1979-07-28 07:05:02.300 ,7,1,0.,12.0,0.,12.0,0.,12.0,0.,12.0
1979-07-28 07:05:14.300 ,7,0,0.,12.0,0.,12.0,0.,12.0,0.,12.0
1979-07-28 07:05:26.300 ,7,0,0.,12.0,0.,12.0,0.,12.0,0.,12.0
1979-07-28 07:05:38.300 ,7,1,0.,12.0,0.,12.0,0.,12.0,0.,12.0
1979-07-28 07:05:50.300 ,7,1,0.,12.0,0.,12.0,0.,12.0,0.,12.0
1979-07-28 07:06:02.300 ,7,0,0.,12.0,0.,12.0,0.,12.0,0.,12.0
1979-07-28 07:06:14.300 ,7,0,0.,12.0,0.,12.0,0.,12.0,0.,12.0
1979-07-28 07:06:26.300 ,6,1,0.,12.0,0.,12.0,0.,12.0,0.,12.0
1979-07-28 07:06:38.300 ,6,1,0.,12.0,0.,12.0,0.,12.0,0.,12.0
1979-07-28 07:06:50.300 ,6,0,0.,12.0,0.,12.0,0.,12.0,0.,12.0
1979-07-28 07:07:02.300 ,6,0,0.,12.0,0.,12.0,0.,12.0,0.,12.0
1979-07-28 07:07:14.300 ,5,1,0.,12.0,0.,12.0,0.,12.0,0.,12.0
1979-07-28 07:07:26.300 ,5,1,0.,12.0,0.,12.0,0.,12.0,0.,12.0
1979-07-28 07:07:38.300 ,5,0,0.,12.0,0.,12.0,0.,12.0,0.,12.0
1979-07-28 07:07:50.300 ,5,0,0.,12.0,0.,12.0,0.,12.0,0.,12.0
1979-07-28 07:08:02.300 ,4,1,0.,12.0,0.,12.0,0.,12.0,0.,12.0
1979-07-28 07:08:14.300 ,4,1,0.,12.0,0.,12.0,0.,12.0,0.,12.0
1979-07-28 07:08:26.300 ,4,0,0.,12.0,0.,12.0,0.,12.0,0.,12.0
1979-07-28 07:08:38.300 ,4,0,0.,12.0,0.,12.0,0.,12.0,0.,12.0
1979-07-28 07:08:50.300 ,3,1,0.,12.0,0.,12.0,0.,12.0,0.,12.0
1979-07-28 07:09:02.300 ,3,1,0.,12.0,0.,12.0,0.,12.0,0.,12.0
1979-07-28 07:09:14.300 ,3,0,0.,12.0,0.,12.0,0.,12.0,0.,12.0
1979-07-28 07:09:26.300 ,3,0,0.,12.0,0.,12.0,0.,12.0,0.,12.0
1979-07-28 07:09:38.300 ,2,1,0.,12.0,0.,12.0,0.,12.0,0.,12.0
1979-07-28 07:09:50.300 ,2,1,0.,12.0,0.,12.0,0.,12.0,0.,12.0
1979-07-28 07:10:02.300 ,2,0,0.,12.0,0.,12.0,0.,12.0,0.,12.0
1979-07-28 07:10:14.300 ,2,0,0.,12.0,0.,12.0,0.,12.0,0.,12.0
1979-07-28 07:10:26.300 ,1,1,0.,12.0,0.,12.0,0.,12.0,0.,12.0
1979-07-28 07:10:38.300 ,1,1,0.,12.0,0.,12.0,0.,12.0,0.,12.0
1979-07-28 07:10:50.300 ,1,0,0.,12.0,0.,12.0,0.,12.0,0.,12.0
1979-07-28 07:11:02.300 ,1,0,0.,12.0,0.,12.0,0.,12.0,0.,12.0
1979-07-28 07:11:14.300 ,0,1,0.,12.0,0.,12.0,0.,12.0,0.,12.0
1979-07-28 07:11:26.300 ,0,1,0.,12.0,0.,12.0,0.,12.0,0.,12.0
1979-07-28 07:11:38.300 ,0,0,0.,12.0,0.,12.0,0.,12.0,0.,12.0
1979-07-28 07:11:50.300 ,0,0,0.,12.0,0.,12.0,0.,12.0,0.,12.0
1979-07-28 07:12:02.300 ,0,1,0.,12.0,0.,12.0,0.,12.0,0.,12.0
1979-07-28 07:12:14.300 ,0,1,0.,12.0,0.,12.0,0.,12.0,0.,12.0
1979-07-28 07:12:26.300 ,0,0,0.,12.0,0.,12.0,0.,12.0,0.,12.0
1979-07-28 07:12:38.300 ,0,0,0.,12.0,0.,12.0,0.,12.0,0.,12.0
1979-07-28 07:12:50.300 ,1,1,0.,12.0,0.,12.0,0.,12.0,0.,12.0
1979-07-28 07:13:02.300 ,1,1,0.,12.0,0.,12.0,0.,12.0,0.,12.0
1979-07-28 07:13:14.300 ,1,0,0.,12.0,0.,12.0,0.,12.0,0.,12.0
1979-07-28 07:13:26.300 ,1,0,0.,12.0,0.,12.0,0.,12.0,0.,12.0
1979-07-28 07:13:38.300 ,2,1,0.,12.0,0.,12.0,0.,12.0,0.,12.0
1979-07-28 07:13:50.300 ,2,1,0.,12.0,0.,12.0,0.,12.0,0.,12.0
1979-07-28 07:14:02.300 ,2,0,0.,12.0,0.,12.0,0.,12.0,0.,12.0
1979-07-28 07:14:14.300 ,2,0,0.,12.0,0.,12.0,0.,12.0,0.,12.0
1979-07-28 07:14:26.300 ,3,1,0.,12.0,0.,12.0,0.,12.0,0.,12.0
1979-07-28 07:14:38.300 ,3,1,0.,12.0,0.,12.0,0.,12.0,0.,12.0
1979-07-28 07:14:50.300 ,3,0,0.,12.0,0.,12.0,0.,12.0,0.,12.0
1979-07-28 07:15:02.300 ,3,0,0.,12.0,0.,12.0,0.,12.0,0.,12.0
1979-07-28 07:15:14.300 ,4,1,0.,12.0,0.,12.0,0.,12.0,0.,12.0
1979-07-28 07:15:26.300 ,4,1,0.,12.0,0.,12.0,0.,12.0,0.,12.0
1979-07-28 07:15:38.300 ,4,0,0.,12.0,0.,12.0,0.,12.0,0.,12.0
1979-07-28 07:15:50.300 ,4,0,0.,12.0,0.,12.0,0.,12.0,0.,12.0
1979-07-28 07:16:02.300 ,5,1,0.,12.0,0.,12.0,0.,12.0,0.,12.0
1979-07-28 07:16:14.300 ,5,1,0.,12.0,0.,12.0,0.,12.0,0.,12.0
1979-07-28 07:16:26.300 ,5,0,0.,12.0,0.,12.0,0.,12.0,0.,12.0
1979-07-28 07:16:38.300 ,5,0,0.,12.0,0.,12.0,0.,12.0,0.,12.0
1979-07-28 07:16:50.300 ,6,1,0.,12.0,0.,12.0,0.,12.0,0.,12.0
1979-07-28 07:17:02.300 ,6,1,0.,12.0,0.,12.0,0.,12.0,0.,12.0
1979-07-28 07:17:14.300 ,6,0,0.,12.0,0.,12.0,0.,12.0,0.,12.0